Tracking 35334 objects as of 13-Sep-2026
HD Live streaming from Space Station
objects crossing your sky now

COSMOS 2112

Track COSMOS 2112 now!
10-day predictions
COSMOS 2112 is classified as:


NORAD ID: 21014
Int'l Code: 1990-111A
Launch date: December 10, 1990
Source: Commonwealth of Independent States (former USSR) (CIS)
Launch site: PLESETSK MISSILE AND SPACE COMPLEX (PKMTR)
Your satellite tracking list
Your tracking list is empty




NASA's NSSDC Master Catalog

Two Line Element Set (TLE):
1 21014U 90111A   26255.91158989  .00000077  00000-0  36605-4 0  9998
2 21014  74.0472 144.3309 0028252 310.8888  48.9816 14.34335032869853
Source of the keplerian elements: AFSPC